Weather History for Ainsworth, NE

Change the Weather History Date:

Saturday, April 13, 2013

  Actual Average Record
Temperature  
Mean Temperature 34 °F -  
Max Temperature 41 °F 55 °F 86 °F (2006)
Min Temperature 28 °F 33 °F 12 °F (1997)
Degree Days  
Heating Degree Days 30    
Moisture  
Dew Point 32 °F    
Average Humidity 85    
Maximum Humidity 95    
Minimum Humidity 73    
Precipitation  
Precipitation 0.02 in - - ()
Sea Level Pressure  
Sea Level Pressure 29.74 in    
Wind  
Wind Speed 9 mph (SE)    
Max Wind Speed 17 mph    
Max Gust Speed -    
Visibility 9 miles    
Events Rain    
Averages and records for this station are not official NWS values.
T = Trace of Precipitation, MM = Missing Value Source: NWS Daily Summary

Daily Weather History Graph

Daily Weather History Graph

Search for Another Location

Airport:

Trip Planner

Search our weather history database for the weather conditions in past years. The results will help you decide how hot, cold, wet, or windy it might be!

Date:

Astronomy

Apr. 13, 2013 Rise Set
Actual Time 7:01 AM CDT 8:19 PM CDT
Civil Twilight 6:32 AM CDT 8:49 PM CDT
Nautical Twilight 5:57 AM CDT 9:24 PM CDT
Astronomical Twilight 5:20 AM CDT 10:01 PM CDT
Moon 8:50 AM CDT (4/13) 11:49 PM CDT (4/13)
Length of Visible Light 14h 16m
Length of Day
13h 18m
Waxing Crescent, 10% of the Moon is Illuminated
Apr 13
Waxing Crescent
Apr 18
First Quarter
Apr 25
Full
May 2
Last Quarter
May 9
New

Hourly Weather History & Observations

Time (CDT) Temp. Windchill Dew Point Humidity Pressure Visibility Wind Dir Wind Speed Gust Speed Precip Events Conditions
12:15 AM 35.8 °F 29.4 °F 32.0 °F 86% 29.96 in 10.0 mi West 8.1 mph - N/A   Overcast
12:35 AM 35.8 °F 28.8 °F 32.0 °F 86% 29.97 in 10.0 mi WNW 9.2 mph - N/A   Overcast
12:55 AM 35.6 °F 29.9 °F 32.0 °F 87% 29.97 in 10.0 mi NW 6.9 mph - N/A   Overcast
1:15 AM 35.1 °F 30.1 °F 32.0 °F 89% 29.97 in 10.0 mi West 5.8 mph - N/A   Overcast
1:35 AM 35.2 °F 29.5 °F 32.0 °F 88% 29.96 in 10.0 mi NNW 6.9 mph - N/A   Overcast
1:55 AM 34.9 °F 30.8 °F 31.8 °F 89% 29.97 in 10.0 mi WNW 4.6 mph - N/A   Overcast
2:15 AM 34.9 °F 28.3 °F 31.1 °F 86% 29.96 in 10.0 mi West 8.1 mph - N/A   Overcast
2:35 AM 34.9 °F 28.3 °F 31.1 °F 86% 29.95 in 10.0 mi West 8.1 mph - N/A   Overcast
2:55 AM 34.5 °F 28.6 °F 30.9 °F 87% 29.94 in 10.0 mi West 6.9 mph - N/A   Overcast
3:15 AM 34.2 °F 26.8 °F 30.7 °F 87% 29.94 in 10.0 mi SW 9.2 mph - N/A   Overcast
3:35 AM 33.3 °F 25.7 °F 30.2 °F 89% 29.94 in 10.0 mi SW 9.2 mph - N/A   Mostly Cloudy
3:55 AM 32.5 °F 24.8 °F 29.7 °F 89% 29.92 in 10.0 mi SW 9.2 mph - N/A   Scattered Clouds
4:15 AM 32.0 °F 24.8 °F 29.1 °F 89% 29.92 in 10.0 mi SW 8.1 mph - N/A   Clear
4:35 AM 31.5 °F 24.2 °F 28.4 °F 88% 29.92 in 10.0 mi SW 8.1 mph - N/A   Clear
4:55 AM 31.1 °F 23.1 °F 28.2 °F 89% 29.91 in 10.0 mi SW 9.2 mph - N/A   Clear
5:15 AM 30.6 °F 23.1 °F 27.9 °F 90% 29.91 in 10.0 mi SW 8.1 mph - N/A   Clear
5:35 AM 30.0 °F 24.1 °F 27.1 °F 89% 29.90 in 10.0 mi SW 5.8 mph - N/A   Clear
5:55 AM 29.1 °F 21.3 °F 26.1 °F 88% 29.90 in 10.0 mi SW 8.1 mph - N/A   Clear
6:15 AM 29.1 °F 21.3 °F 26.4 °F 90% 29.88 in 10.0 mi SW 8.1 mph - N/A   Clear
6:35 AM 28.9 °F 23.9 °F 25.7 °F 88% 29.87 in 10.0 mi WSW 4.6 mph - N/A   Clear
6:55 AM 28.0 °F 20.0 °F 24.8 °F 88% 29.87 in 10.0 mi SW 8.1 mph - N/A   Clear
7:15 AM 28.9 °F 22.8 °F 25.2 °F 86% 29.87 in 10.0 mi SW 5.8 mph - N/A   Clear
7:35 AM 28.8 °F 22.6 °F 25.2 °F 86% 29.86 in 10.0 mi SSW 5.8 mph - N/A   Clear
7:55 AM 28.2 °F 23.1 °F 24.1 °F 84% 29.85 in 10.0 mi South 4.6 mph - N/A   Clear
8:15 AM 29.3 °F 22.3 °F 25.2 °F 85% 29.85 in 10.0 mi South 6.9 mph - N/A   Clear
8:35 AM 30.2 °F 23.4 °F 25.9 °F 84% 29.85 in 10.0 mi South 6.9 mph - N/A   Clear
8:55 AM 31.6 °F 26.0 °F 27.3 °F 84% 29.83 in 10.0 mi South 5.8 mph - N/A   Clear
9:15 AM 32.9 °F 27.5 °F 28.4 °F 84% 29.82 in 10.0 mi South 5.8 mph - N/A   Clear
9:35 AM 34.2 °F 27.5 °F 29.7 °F 84% 29.82 in 10.0 mi South 8.1 mph - N/A   Clear
9:55 AM 35.1 °F 27.4 °F 30.2 °F 82% 29.81 in 10.0 mi South 10.4 mph - N/A   Clear
10:15 AM 35.8 °F 29.4 °F 30.6 °F 81% 29.80 in 10.0 mi SSE 8.1 mph - N/A   Clear
10:35 AM 36.0 °F 29.0 °F 30.6 °F 81% 29.80 in 10.0 mi South 9.2 mph - N/A   Clear
10:55 AM 37.0 °F 31.0 °F 30.7 °F 78% 29.78 in 10.0 mi SSE 8.1 mph - N/A   Clear
11:15 AM 38.1 °F 31.2 °F 30.7 °F 75% 29.78 in 10.0 mi SSE 10.4 mph - N/A   Clear
11:35 AM 37.9 °F 30.5 °F 30.4 °F 74% 29.77 in 10.0 mi SE 11.5 mph - N/A   Mostly Cloudy
11:55 AM 38.3 °F 30.9 °F 30.4 °F 73% 29.77 in 10.0 mi SE 11.5 mph - N/A   Mostly Cloudy
12:15 PM 37.8 °F 29.4 °F 31.1 °F 77% 29.75 in 10.0 mi SE 13.8 mph - N/A   Overcast
12:35 PM 37.9 °F 29.2 °F 31.5 °F 77% 29.73 in 10.0 mi SE 15.0 mph - N/A   Overcast
12:55 PM 38.5 °F 30.3 °F 31.8 °F 77% 29.71 in 10.0 mi SE 13.8 mph - N/A   Scattered Clouds
1:15 PM 39.2 °F 30.8 °F 32.0 °F 75% 29.70 in 10.0 mi SE 15.0 mph - N/A   Mostly Cloudy
1:35 PM 39.6 °F 31.3 °F 32.2 °F 75% 29.68 in 10.0 mi ESE 15.0 mph - N/A   Overcast
1:55 PM 39.7 °F 31.5 °F 32.5 °F 75% 29.67 in 10.0 mi SE 15.0 mph - N/A   Overcast
2:15 PM 40.3 °F 32.2 °F 32.9 °F 75% 29.66 in 10.0 mi ESE 15.0 mph - N/A   Overcast
2:35 PM 40.5 °F 33.6 °F 33.8 °F 77% 29.66 in 10.0 mi ESE 11.5 mph - N/A   Overcast
2:55 PM 41.2 °F 34.1 °F 34.2 °F 76% 29.64 in 10.0 mi ESE 12.7 mph - N/A   Overcast
3:15 PM 41.4 °F 33.6 °F 34.7 °F 77% 29.63 in 10.0 mi ESE 15.0 mph - N/A   Overcast
3:35 PM 41.7 °F 34.4 °F 34.7 °F 76% 29.62 in 10.0 mi ESE 13.8 mph - N/A   Scattered Clouds
3:55 PM 41.2 °F 33.0 °F 34.7 °F 78% 29.60 in 10.0 mi ESE 16.1 mph - N/A   Clear
4:15 PM 41.0 °F 33.1 °F 35.1 °F 79% 29.58 in 10.0 mi ESE 15.0 mph - N/A   Clear
4:35 PM 40.6 °F 33.4 °F 35.1 °F 80% 29.58 in 10.0 mi ESE 12.7 mph - N/A   Scattered Clouds
4:55 PM 41.2 °F 32.7 °F 35.6 °F 81% 29.56 in 10.0 mi ESE 17.3 mph - N/A   Scattered Clouds
5:15 PM 41.5 °F 35.4 °F 35.8 °F 80% 29.57 in 10.0 mi East 10.4 mph - N/A   Scattered Clouds
5:35 PM 41.2 °F 34.1 °F 35.6 °F 81% 29.57 in 10.0 mi East 12.7 mph - N/A   Mostly Cloudy
5:55 PM 40.8 °F 34.5 °F 35.6 °F 82% 29.56 in 10.0 mi East 10.4 mph - N/A   Scattered Clouds
6:15 PM 40.1 °F 34.7 °F 35.2 °F 83% 29.56 in 10.0 mi ENE 8.1 mph - N/A   Mostly Cloudy
6:35 PM 39.6 °F 34.7 °F 35.4 °F 85% 29.57 in 10.0 mi ENE 6.9 mph - N/A   Overcast
6:55 PM 38.8 °F 30.8 °F 35.2 °F 87% 29.55 in 10.0 mi East 13.8 mph - N/A   Overcast
7:15 PM 38.7 °F 31.8 °F 35.2 °F 87% 29.56 in 10.0 mi ENE 10.4 mph - N/A   Mostly Cloudy
7:35 PM 38.3 °F 32.5 °F 35.6 °F 90% 29.56 in 7.0 mi ENE 8.1 mph - N/A   Overcast
7:55 PM 37.6 °F 30.0 °F 35.1 °F 91% 29.55 in 5.0 mi East 11.5 mph - N/A   Overcast
8:15 PM 37.4 °F 28.9 °F 35.2 °F 92% 29.55 in 4.0 mi East 13.8 mph - N/A   Overcast
8:35 PM 37.0 °F 28.9 °F 35.1 °F 93% 29.55 in 5.0 mi East 12.7 mph - N/A   Mostly Cloudy
8:55 PM 36.9 °F 28.7 °F 35.1 °F 93% 29.55 in 5.0 mi East 12.7 mph - N/A   Mostly Cloudy
9:15 PM 36.5 °F 29.7 °F 34.7 °F 93% 29.55 in 5.0 mi East 9.2 mph - N/A   Overcast
9:35 PM 37.4 °F 28.9 °F 35.6 °F 93% 29.55 in 5.0 mi East 13.8 mph - N/A   Drizzle
9:55 PM 37.6 °F 30.5 °F 35.8 °F 93% 29.55 in 5.0 mi East 10.4 mph - 0.01 in   Overcast
10:15 PM 37.2 °F 30.6 °F 35.4 °F 93% 29.57 in 4.0 mi NNE 9.2 mph - N/A Rain Light Rain
10:35 PM 36.9 °F 29.6 °F 35.4 °F 95% 29.55 in 4.0 mi ENE 10.4 mph - N/A   Overcast
10:55 PM 36.5 °F 30.3 °F 34.9 °F 94% 29.55 in 3.0 mi ENE 8.1 mph - N/A   Overcast
11:15 PM 36.1 °F 30.6 °F 34.7 °F 94% 29.55 in 2.5 mi ENE 6.9 mph - N/A   Overcast
11:35 PM 36.5 °F 31.0 °F 34.7 °F 93% 29.55 in 3.0 mi North 6.9 mph - N/A Rain Rain
11:55 PM 36.9 °F 29.1 °F 35.4 °F 95% 29.51 in 4.0 mi NE 11.5 mph - 0.01 in   Overcast